Вернуться в каталог

STARLINK-5522

АктивенСвязьVLEO
NORAD 56498·PAYLOAD·🇺🇸 United States

Запущен May 10, 2023 с Vandenberg Space Force Base

Loading…

Ближайшие Пролёты (ближайшие 24 часа)

TLE

СвежийSource: CelesTrak SupGP

Эпоха: Sep 14, 2026, 21:43 UTC

1 56498C 23064BC  26257.90534722 -.00050371  00000+0 -42217-2 0  2573
2 56498  70.0016 347.3267 0003326 269.9556 191.4380 14.98351447    19

Отслеживайте STARLINK-5522 в реальном времени с AllMySat

Download on the App Store